Year,Month,Day,Hour,Minute,Value (Times are PST for temperature in C)
2014,08,10,00,00,16.50
2014,08,10,00,01,16.40
2014,08,10,00,02,16.40
2014,08,10,00,03,16.40
2014,08,10,00,04,16.40
2014,08,10,00,05,16.40
2014,08,10,00,06,16.40
2014,08,10,00,07,16.40
2014,08,10,00,08,16.30
2014,08,10,00,09,16.30
2014,08,10,00,10,16.30
2014,08,10,00,11,16.30
2014,08,10,00,12,16.30
2014,08,10,00,13,16.20
2014,08,10,00,14,16.20
2014,08,10,00,15,16.20
2014,08,10,00,16,16.20
2014,08,10,00,17,16.20
2014,08,10,00,18,16.20
2014,08,10,00,19,16.20
2014,08,10,00,20,16.20
2014,08,10,00,21,16.20
2014,08,10,00,22,16.10
2014,08,10,00,23,16.10
2014,08,10,00,24,16.10
2014,08,10,00,25,16.10
2014,08,10,00,26,16.10
2014,08,10,00,27,16.10
2014,08,10,00,28,16.10
2014,08,10,00,29,16.10
2014,08,10,00,30,16.10
2014,08,10,00,31,16.10
2014,08,10,00,32,16.10
2014,08,10,00,33,16.10
2014,08,10,00,34,16.00
2014,08,10,00,35,15.90
2014,08,10,00,36,15.90
2014,08,10,00,37,15.90
2014,08,10,00,38,15.90
2014,08,10,00,39,15.90
2014,08,10,00,40,15.90
2014,08,10,00,41,15.90
2014,08,10,00,42,15.90
2014,08,10,00,43,15.90
2014,08,10,00,44,15.90
2014,08,10,00,45,15.90
2014,08,10,00,46,15.90
2014,08,10,00,47,15.90
2014,08,10,00,48,15.90
2014,08,10,00,49,15.90
2014,08,10,00,50,15.80
2014,08,10,00,51,15.80
2014,08,10,00,52,15.80
2014,08,10,00,53,15.80
2014,08,10,00,54,15.80
2014,08,10,00,55,15.80
2014,08,10,00,56,15.80
2014,08,10,00,57,15.80
2014,08,10,00,58,15.80
2014,08,10,00,59,15.80
2014,08,10,01,00,15.80
2014,08,10,01,01,15.80
2014,08,10,01,02,15.80
2014,08,10,01,03,15.70
2014,08,10,01,04,15.70
2014,08,10,01,05,15.70
2014,08,10,01,06,15.70
2014,08,10,01,07,15.60
2014,08,10,01,08,15.60
2014,08,10,01,09,15.60
2014,08,10,01,10,15.60
2014,08,10,01,11,15.60
2014,08,10,01,12,15.60
2014,08,10,01,13,15.60
2014,08,10,01,14,15.60
2014,08,10,01,15,15.50
2014,08,10,01,16,15.50
2014,08,10,01,17,15.50
2014,08,10,01,18,15.50
2014,08,10,01,19,15.50
2014,08,10,01,20,15.50
2014,08,10,01,21,15.50
2014,08,10,01,22,15.50
2014,08,10,01,23,15.50
2014,08,10,01,24,15.50
2014,08,10,01,25,15.50
2014,08,10,01,26,15.50
2014,08,10,01,27,15.50
2014,08,10,01,28,15.50
2014,08,10,01,29,15.50
2014,08,10,01,30,15.50
2014,08,10,01,31,15.50
2014,08,10,01,32,15.50
2014,08,10,01,33,15.40
2014,08,10,01,34,15.40
2014,08,10,01,35,15.40
2014,08,10,01,36,15.40
2014,08,10,01,37,15.40
2014,08,10,01,38,15.40
2014,08,10,01,39,15.30
2014,08,10,01,40,15.30
2014,08,10,01,41,15.30
2014,08,10,01,42,15.30
2014,08,10,01,43,15.30
2014,08,10,01,44,15.30
2014,08,10,01,45,15.30
2014,08,10,01,46,15.30
2014,08,10,01,47,15.30
2014,08,10,01,48,15.30
2014,08,10,01,49,15.30
2014,08,10,01,50,15.30
2014,08,10,01,51,15.20
2014,08,10,01,52,15.20
2014,08,10,01,53,15.20
2014,08,10,01,54,15.20
2014,08,10,01,55,15.20
2014,08,10,01,56,15.20
2014,08,10,01,57,15.20
2014,08,10,01,58,15.10
2014,08,10,01,59,15.10
2014,08,10,02,00,15.10
2014,08,10,02,01,15.10
2014,08,10,02,02,15.10
2014,08,10,02,03,15.10
2014,08,10,02,04,15.00
2014,08,10,02,05,15.00
2014,08,10,02,06,15.00
2014,08,10,02,07,15.00
2014,08,10,02,08,15.00
2014,08,10,02,09,15.00
2014,08,10,02,10,15.00
2014,08,10,02,11,15.10
2014,08,10,02,12,15.10
2014,08,10,02,13,15.10
2014,08,10,02,14,15.10
2014,08,10,02,15,15.10
2014,08,10,02,16,15.10
2014,08,10,02,17,15.10
2014,08,10,02,18,15.10
2014,08,10,02,19,15.10
2014,08,10,02,20,15.10
2014,08,10,02,21,15.10
2014,08,10,02,22,15.10
2014,08,10,02,23,15.00
2014,08,10,02,24,15.00
2014,08,10,02,25,14.90
2014,08,10,02,26,14.90
2014,08,10,02,27,14.90
2014,08,10,02,28,14.90
2014,08,10,02,29,14.80
2014,08,10,02,30,14.80
2014,08,10,02,31,14.80
2014,08,10,02,32,14.80
2014,08,10,02,33,14.80
2014,08,10,02,34,14.80
2014,08,10,02,35,14.80
2014,08,10,02,36,14.80
2014,08,10,02,37,14.80
2014,08,10,02,38,14.80
2014,08,10,02,39,14.80
2014,08,10,02,40,14.80
2014,08,10,02,41,14.80
2014,08,10,02,42,14.80
2014,08,10,02,43,14.80
2014,08,10,02,44,14.80
2014,08,10,02,45,14.80
2014,08,10,02,46,14.80
2014,08,10,02,47,14.80
2014,08,10,02,48,14.80
2014,08,10,02,49,14.70
2014,08,10,02,50,14.70
2014,08,10,02,51,14.70
2014,08,10,02,52,14.70
2014,08,10,02,53,14.70
2014,08,10,02,54,14.70
2014,08,10,02,55,14.70
2014,08,10,02,56,14.70
2014,08,10,02,57,14.70
2014,08,10,02,58,14.70
2014,08,10,02,59,14.60
2014,08,10,03,00,14.60
2014,08,10,03,01,14.60
2014,08,10,03,02,14.60
2014,08,10,03,03,14.50
2014,08,10,03,04,14.50
2014,08,10,03,05,14.50
2014,08,10,03,06,14.50
2014,08,10,03,07,14.50
2014,08,10,03,08,14.40
2014,08,10,03,09,14.40
2014,08,10,03,10,14.40
2014,08,10,03,11,14.40
2014,08,10,03,12,14.40
2014,08,10,03,13,14.40
2014,08,10,03,14,14.40
2014,08,10,03,15,14.40
2014,08,10,03,16,14.40
2014,08,10,03,17,14.40
2014,08,10,03,18,14.40
2014,08,10,03,19,14.40
2014,08,10,03,20,14.40
2014,08,10,03,21,14.40
2014,08,10,03,22,14.30
2014,08,10,03,23,14.30
2014,08,10,03,24,14.30
2014,08,10,03,25,14.30
2014,08,10,03,26,14.30
2014,08,10,03,27,14.30
2014,08,10,03,28,14.30
2014,08,10,03,29,14.30
2014,08,10,03,30,14.30
2014,08,10,03,31,14.30
2014,08,10,03,32,14.30
2014,08,10,03,33,14.30
2014,08,10,03,34,14.20
2014,08,10,03,35,14.20
2014,08,10,03,36,14.20
2014,08,10,03,37,14.20
2014,08,10,03,38,14.20
2014,08,10,03,39,14.20
2014,08,10,03,40,14.20
2014,08,10,03,41,14.20
2014,08,10,03,42,14.20
2014,08,10,03,43,14.30
2014,08,10,03,44,14.30
2014,08,10,03,45,14.30
2014,08,10,03,46,14.30
2014,08,10,03,47,14.20
2014,08,10,03,48,14.20
2014,08,10,03,49,14.20
2014,08,10,03,50,14.20
2014,08,10,03,51,14.20
2014,08,10,03,52,14.20
2014,08,10,03,53,14.20
2014,08,10,03,54,14.20
2014,08,10,03,55,14.20
2014,08,10,03,56,14.20
2014,08,10,03,57,14.20
2014,08,10,03,58,14.20
2014,08,10,03,59,14.20
2014,08,10,04,00,14.20
2014,08,10,04,01,14.20
2014,08,10,04,02,14.00
2014,08,10,04,03,14.00
2014,08,10,04,04,14.00
2014,08,10,04,05,14.00
2014,08,10,04,06,13.90
2014,08,10,04,07,13.90
2014,08,10,04,08,13.90
2014,08,10,04,09,13.90
2014,08,10,04,10,13.80
2014,08,10,04,11,13.80
2014,08,10,04,12,13.80
2014,08,10,04,13,13.80
2014,08,10,04,14,13.80
2014,08,10,04,15,13.80
2014,08,10,04,16,13.80
2014,08,10,04,17,13.80
2014,08,10,04,18,13.80
2014,08,10,04,19,13.80
2014,08,10,04,20,13.80
2014,08,10,04,21,13.80
2014,08,10,04,22,13.90
2014,08,10,04,23,13.90
2014,08,10,04,24,13.90
2014,08,10,04,25,13.90
2014,08,10,04,26,13.90
2014,08,10,04,27,13.90
2014,08,10,04,28,13.90
2014,08,10,04,29,13.90
2014,08,10,04,30,13.90
2014,08,10,04,31,13.90
2014,08,10,04,32,13.90
2014,08,10,04,33,13.80
2014,08,10,04,34,13.80
2014,08,10,04,35,13.80
2014,08,10,04,36,13.80
2014,08,10,04,37,13.80
2014,08,10,04,38,13.80
2014,08,10,04,39,13.80
2014,08,10,04,40,13.80
2014,08,10,04,41,13.80
2014,08,10,04,42,13.80
2014,08,10,04,43,13.80
2014,08,10,04,44,13.70
2014,08,10,04,45,13.70
2014,08,10,04,46,13.70
2014,08,10,04,47,13.70
2014,08,10,04,48,13.70
2014,08,10,04,49,13.70
2014,08,10,04,50,13.70
2014,08,10,04,51,13.70
2014,08,10,04,52,13.70
2014,08,10,04,53,13.70
2014,08,10,04,54,13.70
2014,08,10,04,55,13.70
2014,08,10,04,56,13.70
2014,08,10,04,57,13.70
2014,08,10,04,58,13.70
2014,08,10,04,59,13.70
2014,08,10,05,00,13.70
2014,08,10,05,01,13.70
2014,08,10,05,02,13.60
2014,08,10,05,03,13.60
2014,08,10,05,04,13.60
2014,08,10,05,05,13.60
2014,08,10,05,06,13.60
2014,08,10,05,07,13.60
2014,08,10,05,08,13.60
2014,08,10,05,09,13.60
2014,08,10,05,10,13.60
2014,08,10,05,11,13.60
2014,08,10,05,12,13.60
2014,08,10,05,13,13.60
2014,08,10,05,14,13.60
2014,08,10,05,15,13.60
2014,08,10,05,16,13.60
2014,08,10,05,17,13.60
2014,08,10,05,18,13.60
2014,08,10,05,19,13.60
2014,08,10,05,20,13.60
2014,08,10,05,21,13.50
2014,08,10,05,22,13.50
2014,08,10,05,23,13.50
2014,08,10,05,24,13.50
2014,08,10,05,25,13.50
2014,08,10,05,26,13.50
2014,08,10,05,27,13.50
2014,08,10,05,28,13.50
2014,08,10,05,29,13.50
2014,08,10,05,30,13.50
2014,08,10,05,31,13.40
2014,08,10,05,32,13.40
2014,08,10,05,33,13.40
2014,08,10,05,34,13.40
2014,08,10,05,35,13.40
2014,08,10,05,36,13.40
2014,08,10,05,37,13.40
2014,08,10,05,38,13.40
2014,08,10,05,39,13.40
2014,08,10,05,40,13.40
2014,08,10,05,41,13.40
2014,08,10,05,42,13.40
2014,08,10,05,43,13.40
2014,08,10,05,44,13.40
2014,08,10,05,45,13.40
2014,08,10,05,46,13.40
2014,08,10,05,47,13.40
2014,08,10,05,48,13.50
2014,08,10,05,49,13.50
2014,08,10,05,50,13.50
2014,08,10,05,51,13.50
2014,08,10,05,52,13.50
2014,08,10,05,53,13.50
2014,08,10,05,54,13.50
2014,08,10,05,55,13.50
2014,08,10,05,56,13.50
2014,08,10,05,57,13.50
2014,08,10,05,58,13.50
2014,08,10,05,59,13.50
2014,08,10,06,00,13.50
2014,08,10,06,01,13.50
2014,08,10,06,02,13.50
2014,08,10,06,03,13.50
2014,08,10,06,04,13.40
2014,08,10,06,05,13.40
2014,08,10,06,06,13.40
2014,08,10,06,07,13.50
2014,08,10,06,08,13.50
2014,08,10,06,09,13.50
2014,08,10,06,10,13.50
2014,08,10,06,11,13.50
2014,08,10,06,12,13.50
2014,08,10,06,13,13.50
2014,08,10,06,14,13.50
2014,08,10,06,15,13.50
2014,08,10,06,16,13.50
2014,08,10,06,17,13.50
2014,08,10,06,18,13.50
2014,08,10,06,19,13.50
2014,08,10,06,20,13.50
2014,08,10,06,21,13.50
2014,08,10,06,22,13.60
2014,08,10,06,23,13.60
2014,08,10,06,24,13.60
2014,08,10,06,25,13.60
2014,08,10,06,26,13.70
2014,08,10,06,27,13.70
2014,08,10,06,28,13.70
2014,08,10,06,29,13.70
2014,08,10,06,30,13.70
2014,08,10,06,31,13.80
2014,08,10,06,32,13.80
2014,08,10,06,33,13.80
2014,08,10,06,34,13.90
2014,08,10,06,35,13.90
2014,08,10,06,36,13.90
2014,08,10,06,37,13.90
2014,08,10,06,38,13.90
2014,08,10,06,39,13.90
2014,08,10,06,40,13.90
2014,08,10,06,41,13.90
2014,08,10,06,42,14.00
2014,08,10,06,43,14.00
2014,08,10,06,44,14.00
2014,08,10,06,45,14.00
2014,08,10,06,46,14.00
2014,08,10,06,47,14.10
2014,08,10,06,48,14.10
2014,08,10,06,49,14.10
2014,08,10,06,50,14.20
2014,08,10,06,51,14.20
2014,08,10,06,52,14.20
2014,08,10,06,53,14.30
2014,08,10,06,54,14.40
2014,08,10,06,55,14.40
2014,08,10,06,56,14.50
2014,08,10,06,57,14.50
2014,08,10,06,58,14.50
2014,08,10,06,59,14.60
2014,08,10,07,00,14.60
2014,08,10,07,01,14.70
2014,08,10,07,02,14.70
2014,08,10,07,03,14.80
2014,08,10,07,04,14.80
2014,08,10,07,05,14.80
2014,08,10,07,06,14.90
2014,08,10,07,07,15.00
2014,08,10,07,08,15.00
2014,08,10,07,09,15.10
2014,08,10,07,10,15.10
2014,08,10,07,11,15.10
2014,08,10,07,12,15.20
2014,08,10,07,13,15.20
2014,08,10,07,14,15.20
2014,08,10,07,15,15.20
2014,08,10,07,16,15.20
2014,08,10,07,17,15.20
2014,08,10,07,18,15.30
2014,08,10,07,19,15.30
2014,08,10,07,20,15.30
2014,08,10,07,21,15.40
2014,08,10,07,22,15.40
2014,08,10,07,23,15.50
2014,08,10,07,24,15.50
2014,08,10,07,25,15.60
2014,08,10,07,26,15.70
2014,08,10,07,27,15.80
2014,08,10,07,28,15.90
2014,08,10,07,29,16.10
2014,08,10,07,30,16.10
2014,08,10,07,31,16.20
2014,08,10,07,32,16.30
2014,08,10,07,33,16.40
2014,08,10,07,34,16.40
2014,08,10,07,35,16.40
2014,08,10,07,36,16.60
2014,08,10,07,37,16.50
2014,08,10,07,38,16.40
2014,08,10,07,39,16.40
2014,08,10,07,40,16.40
2014,08,10,07,41,16.50
2014,08,10,07,42,16.50
2014,08,10,07,43,16.60
2014,08,10,07,44,16.60
2014,08,10,07,45,16.60
2014,08,10,07,46,16.60
2014,08,10,07,47,16.60
2014,08,10,07,48,16.60
2014,08,10,07,49,16.60
2014,08,10,07,50,16.60
2014,08,10,07,51,16.60
2014,08,10,07,52,16.60
2014,08,10,07,53,16.60
2014,08,10,07,54,16.60
2014,08,10,07,55,16.60
2014,08,10,07,56,16.60
2014,08,10,07,57,16.60
2014,08,10,07,58,16.60
2014,08,10,07,59,16.60
2014,08,10,08,00,16.60
2014,08,10,08,01,16.60
2014,08,10,08,02,16.60
2014,08,10,08,03,16.60
2014,08,10,08,04,16.70
2014,08,10,08,05,16.70
2014,08,10,08,06,16.70
2014,08,10,08,07,16.80
2014,08,10,08,08,16.90
2014,08,10,08,09,17.00
2014,08,10,08,10,17.10
2014,08,10,08,11,17.20
2014,08,10,08,12,17.30
2014,08,10,08,13,17.30
2014,08,10,08,14,17.40
2014,08,10,08,15,17.50
2014,08,10,08,16,17.50
2014,08,10,08,17,17.50
2014,08,10,08,18,17.60
2014,08,10,08,19,17.60
2014,08,10,08,20,17.60
2014,08,10,08,21,17.70
2014,08,10,08,22,17.70
2014,08,10,08,23,17.70
2014,08,10,08,24,17.70
2014,08,10,08,25,17.70
2014,08,10,08,26,17.80
2014,08,10,08,27,17.80
2014,08,10,08,28,17.80
2014,08,10,08,29,17.90
2014,08,10,08,30,17.90
2014,08,10,08,31,17.90
2014,08,10,08,32,18.00
2014,08,10,08,33,18.10
2014,08,10,08,34,18.10
2014,08,10,08,35,18.20
2014,08,10,08,36,18.30
2014,08,10,08,37,18.40
2014,08,10,08,38,18.50
2014,08,10,08,39,18.60
2014,08,10,08,40,18.80
2014,08,10,08,41,18.90
2014,08,10,08,42,19.00
2014,08,10,08,43,19.10
2014,08,10,08,44,19.20
2014,08,10,08,45,19.30
2014,08,10,08,46,19.40
2014,08,10,08,47,19.50
2014,08,10,08,48,19.60
2014,08,10,08,49,19.70
2014,08,10,08,50,19.80
2014,08,10,08,51,19.90
2014,08,10,08,52,19.90
2014,08,10,08,53,19.90
2014,08,10,08,54,19.90
2014,08,10,08,55,20.00
2014,08,10,08,56,20.10
2014,08,10,08,57,20.20
2014,08,10,08,58,20.20
2014,08,10,08,59,20.20
2014,08,10,09,00,20.20
2014,08,10,09,01,20.20
2014,08,10,09,02,20.30
2014,08,10,09,03,20.40
2014,08,10,09,04,20.40
2014,08,10,09,05,20.50
2014,08,10,09,06,20.70
2014,08,10,09,07,20.80
2014,08,10,09,08,20.90
2014,08,10,09,09,21.00
2014,08,10,09,10,21.10
2014,08,10,09,11,21.20
2014,08,10,09,12,21.30
2014,08,10,09,13,21.40
2014,08,10,09,14,21.50
2014,08,10,09,15,21.60
2014,08,10,09,16,21.70
2014,08,10,09,17,21.80
2014,08,10,09,18,21.90
2014,08,10,09,19,21.90
2014,08,10,09,20,22.00
2014,08,10,09,21,22.10
2014,08,10,09,22,22.10
2014,08,10,09,23,22.20
2014,08,10,09,24,22.20
2014,08,10,09,25,22.30
2014,08,10,09,26,22.30
2014,08,10,09,27,22.40
2014,08,10,09,28,22.50
2014,08,10,09,29,22.50
2014,08,10,09,30,22.60
2014,08,10,09,31,22.60
2014,08,10,09,32,22.60
2014,08,10,09,33,22.60
2014,08,10,09,34,22.70
2014,08,10,09,35,22.80
2014,08,10,09,36,22.70
2014,08,10,09,37,22.70
2014,08,10,09,38,22.80
2014,08,10,09,39,22.80
2014,08,10,09,40,22.80
2014,08,10,09,41,22.80
2014,08,10,09,42,22.80
2014,08,10,09,43,22.80
2014,08,10,09,44,22.80
2014,08,10,09,45,22.80
2014,08,10,09,46,22.80
2014,08,10,09,47,22.80
2014,08,10,09,48,22.80
2014,08,10,09,49,22.90
2014,08,10,09,50,22.90
2014,08,10,09,51,22.90
2014,08,10,09,52,22.90
2014,08,10,09,53,23.00
2014,08,10,09,54,23.10
2014,08,10,09,55,23.10
2014,08,10,09,56,23.20
2014,08,10,09,57,23.30
2014,08,10,09,58,23.30
2014,08,10,09,59,23.30
2014,08,10,10,00,23.40
2014,08,10,10,01,23.60
2014,08,10,10,02,23.60
2014,08,10,10,03,23.70
2014,08,10,10,04,23.70
2014,08,10,10,05,23.70
2014,08,10,10,06,23.70
2014,08,10,10,07,23.70
2014,08,10,10,08,23.70
2014,08,10,10,09,23.70
2014,08,10,10,10,23.70
2014,08,10,10,11,23.70
2014,08,10,10,12,23.70
2014,08,10,10,13,23.70
2014,08,10,10,14,23.70
2014,08,10,10,15,23.70
2014,08,10,10,16,23.70
2014,08,10,10,17,23.70
2014,08,10,10,18,23.70
2014,08,10,10,19,23.70
2014,08,10,10,20,23.70
2014,08,10,10,21,23.70
2014,08,10,10,22,23.70
2014,08,10,10,23,23.70
2014,08,10,10,24,23.70
2014,08,10,10,25,23.70
2014,08,10,10,26,23.70
2014,08,10,10,27,23.80
2014,08,10,10,28,23.90
2014,08,10,10,29,23.90
2014,08,10,10,30,24.00
2014,08,10,10,31,24.10
2014,08,10,10,32,24.10
2014,08,10,10,33,24.10
2014,08,10,10,34,24.10
2014,08,10,10,35,24.10
2014,08,10,10,36,24.00
2014,08,10,10,37,23.90
2014,08,10,10,38,23.90
2014,08,10,10,39,23.90
2014,08,10,10,40,23.90
2014,08,10,10,41,24.00
2014,08,10,10,42,24.10
2014,08,10,10,43,24.10
2014,08,10,10,44,24.10
2014,08,10,10,45,24.10
2014,08,10,10,46,24.10
2014,08,10,10,47,24.10
2014,08,10,10,48,24.10
2014,08,10,10,49,24.10
2014,08,10,10,50,24.20
2014,08,10,10,51,24.30
2014,08,10,10,52,24.30
2014,08,10,10,53,24.40
2014,08,10,10,54,24.50
2014,08,10,10,55,24.50
2014,08,10,10,56,24.50
2014,08,10,10,57,24.50
2014,08,10,10,58,24.40
2014,08,10,10,59,24.40
2014,08,10,11,00,24.20
2014,08,10,11,01,24.20
2014,08,10,11,02,24.20
2014,08,10,11,03,24.20
2014,08,10,11,04,24.30
2014,08,10,11,05,24.30
2014,08,10,11,06,24.10
2014,08,10,11,07,23.80
2014,08,10,11,08,23.60
2014,08,10,11,09,23.30
2014,08,10,11,10,23.00
2014,08,10,11,11,22.60
2014,08,10,11,12,22.40
2014,08,10,11,13,22.20
2014,08,10,11,14,22.20
2014,08,10,11,15,22.10
2014,08,10,11,16,22.00
2014,08,10,11,17,21.90
2014,08,10,11,18,22.00
2014,08,10,11,19,22.00
2014,08,10,11,20,22.10
2014,08,10,11,21,22.10
2014,08,10,11,22,22.10
2014,08,10,11,23,22.20
2014,08,10,11,24,22.20
2014,08,10,11,25,22.00
2014,08,10,11,26,21.80
2014,08,10,11,27,21.70
2014,08,10,11,28,21.60
2014,08,10,11,29,21.60
2014,08,10,11,30,21.50
2014,08,10,11,31,21.40
2014,08,10,11,32,21.30
2014,08,10,11,33,21.20
2014,08,10,11,34,21.00
2014,08,10,11,35,20.90
2014,08,10,11,36,20.80
2014,08,10,11,37,20.70
2014,08,10,11,38,20.60
2014,08,10,11,39,20.60
2014,08,10,11,40,20.60
2014,08,10,11,41,20.50
2014,08,10,11,42,20.50
2014,08,10,11,43,20.40
2014,08,10,11,44,20.40
2014,08,10,11,45,20.50
2014,08,10,11,46,20.50
2014,08,10,11,47,20.50
2014,08,10,11,48,20.50
2014,08,10,11,49,20.50
2014,08,10,11,50,20.50
2014,08,10,11,51,20.50
2014,08,10,11,52,20.50
2014,08,10,11,53,20.60
2014,08,10,11,54,20.60
2014,08,10,11,55,20.70
2014,08,10,11,56,20.80
2014,08,10,11,57,20.90
2014,08,10,11,58,21.00
2014,08,10,11,59,21.00
2014,08,10,12,00,21.00
2014,08,10,12,01,21.10
2014,08,10,12,02,21.10
2014,08,10,12,03,21.30
2014,08,10,12,04,21.40
2014,08,10,12,05,21.50
2014,08,10,12,06,21.60
2014,08,10,12,07,21.70
2014,08,10,12,08,21.70
2014,08,10,12,09,21.70
2014,08,10,12,10,21.70
2014,08,10,12,11,21.70
2014,08,10,12,12,21.90
2014,08,10,12,13,22.00
2014,08,10,12,14,22.00
2014,08,10,12,15,22.10
2014,08,10,12,16,22.10
2014,08,10,12,17,22.10
2014,08,10,12,18,22.00
2014,08,10,12,19,22.00
2014,08,10,12,20,22.00
2014,08,10,12,21,22.10
2014,08,10,12,22,22.10
2014,08,10,12,23,22.00
2014,08,10,12,24,22.10
2014,08,10,12,25,22.10
2014,08,10,12,26,22.20
2014,08,10,12,27,22.20
2014,08,10,12,28,22.20
2014,08,10,12,29,22.30
2014,08,10,12,30,22.30
2014,08,10,12,31,22.30
2014,08,10,12,32,22.30
2014,08,10,12,33,22.30
2014,08,10,12,34,22.20
2014,08,10,12,35,22.10
2014,08,10,12,36,22.10
2014,08,10,12,37,22.20
2014,08,10,12,38,22.20
2014,08,10,12,39,22.20
2014,08,10,12,40,22.30
2014,08,10,12,41,22.30
2014,08,10,12,42,22.30
2014,08,10,12,43,22.40
2014,08,10,12,44,22.40
2014,08,10,12,45,22.60
2014,08,10,12,46,22.60
2014,08,10,12,47,22.60
2014,08,10,12,48,22.60
2014,08,10,12,49,22.60
2014,08,10,12,50,22.70
2014,08,10,12,51,22.70
2014,08,10,12,52,22.70
2014,08,10,12,53,22.70
2014,08,10,12,54,22.70
2014,08,10,12,55,22.80
2014,08,10,12,56,22.80
2014,08,10,12,57,22.70
2014,08,10,12,58,22.70
2014,08,10,12,59,22.70
2014,08,10,13,00,22.70
2014,08,10,13,01,22.60
2014,08,10,13,02,22.60
2014,08,10,13,03,22.70
2014,08,10,13,04,22.80
2014,08,10,13,05,22.90
2014,08,10,13,06,22.90
2014,08,10,13,07,22.90
2014,08,10,13,08,22.90
2014,08,10,13,09,22.90
2014,08,10,13,10,22.90
2014,08,10,13,11,22.90
2014,08,10,13,12,22.90
2014,08,10,13,13,22.90
2014,08,10,13,14,22.90
2014,08,10,13,15,22.90
2014,08,10,13,16,23.00
2014,08,10,13,17,23.20
2014,08,10,13,18,23.30
2014,08,10,13,19,23.30
2014,08,10,13,20,23.20
2014,08,10,13,21,23.00
2014,08,10,13,22,22.90
2014,08,10,13,23,22.80
2014,08,10,13,24,22.60
2014,08,10,13,25,22.50
2014,08,10,13,26,22.40
2014,08,10,13,27,22.40
2014,08,10,13,28,22.30
2014,08,10,13,29,22.30
2014,08,10,13,30,22.30
2014,08,10,13,31,22.30
2014,08,10,13,32,22.30
2014,08,10,13,33,22.30
2014,08,10,13,34,22.20
2014,08,10,13,35,22.30
2014,08,10,13,36,22.20
2014,08,10,13,37,22.10
2014,08,10,13,38,22.10
2014,08,10,13,39,22.00
2014,08,10,13,40,21.90
2014,08,10,13,41,22.00
2014,08,10,13,42,22.00
2014,08,10,13,43,22.10
2014,08,10,13,44,22.10
2014,08,10,13,45,22.00
2014,08,10,13,46,22.00
2014,08,10,13,47,22.00
2014,08,10,13,48,22.00
2014,08,10,13,49,22.00
2014,08,10,13,50,22.00
2014,08,10,13,51,22.10
2014,08,10,13,52,22.10
2014,08,10,13,53,22.20
2014,08,10,13,54,22.30
2014,08,10,13,55,22.20
2014,08,10,13,56,22.20
2014,08,10,13,57,22.10
2014,08,10,13,58,22.20
2014,08,10,13,59,22.20
2014,08,10,14,00,22.40
2014,08,10,14,01,22.50
2014,08,10,14,02,22.50
2014,08,10,14,03,22.50
2014,08,10,14,04,22.50
2014,08,10,14,05,22.50
2014,08,10,14,06,22.50
2014,08,10,14,07,22.50
2014,08,10,14,08,22.40
2014,08,10,14,09,22.40
2014,08,10,14,10,22.40
2014,08,10,14,11,22.40
2014,08,10,14,12,22.40
2014,08,10,14,13,22.50
2014,08,10,14,14,22.50
2014,08,10,14,15,22.60
2014,08,10,14,16,22.60
2014,08,10,14,17,22.70
2014,08,10,14,18,22.60
2014,08,10,14,19,22.70
2014,08,10,14,20,22.70
2014,08,10,14,21,22.70
2014,08,10,14,22,22.80
2014,08,10,14,23,22.80
2014,08,10,14,24,22.80
2014,08,10,14,25,22.90
2014,08,10,14,26,22.90
2014,08,10,14,27,22.90
2014,08,10,14,28,22.90
2014,08,10,14,29,23.00
2014,08,10,14,30,23.10
2014,08,10,14,31,23.00
2014,08,10,14,32,23.00
2014,08,10,14,33,23.10
2014,08,10,14,34,23.30
2014,08,10,14,35,23.30
2014,08,10,14,36,23.30
2014,08,10,14,37,23.30
2014,08,10,14,38,23.30
2014,08,10,14,39,23.30
2014,08,10,14,40,23.30
2014,08,10,14,41,23.30
2014,08,10,14,42,23.20
2014,08,10,14,43,23.20
2014,08,10,14,44,23.10
2014,08,10,14,45,23.10
2014,08,10,14,46,23.00
2014,08,10,14,47,23.00
2014,08,10,14,48,23.10
2014,08,10,14,49,23.00
2014,08,10,14,50,23.00
2014,08,10,14,51,23.10
2014,08,10,14,52,23.10
2014,08,10,14,53,23.10
2014,08,10,14,54,23.10
2014,08,10,14,55,23.20
2014,08,10,14,56,23.20
2014,08,10,14,57,23.20
2014,08,10,14,58,23.30
2014,08,10,14,59,23.30
2014,08,10,15,00,23.30
2014,08,10,15,01,23.40
2014,08,10,15,02,23.30
2014,08,10,15,03,23.30
2014,08,10,15,04,23.30
2014,08,10,15,05,23.30
2014,08,10,15,06,23.30
2014,08,10,15,07,23.30
2014,08,10,15,08,23.30
2014,08,10,15,09,23.30
2014,08,10,15,10,23.40
2014,08,10,15,11,23.60
2014,08,10,15,12,23.70
2014,08,10,15,13,23.90
2014,08,10,15,14,23.90
2014,08,10,15,15,23.90
2014,08,10,15,16,23.90
2014,08,10,15,17,23.90
2014,08,10,15,18,23.90
2014,08,10,15,19,23.90
2014,08,10,15,20,23.80
2014,08,10,15,21,23.80
2014,08,10,15,22,23.90
2014,08,10,15,23,23.90
2014,08,10,15,24,23.90
2014,08,10,15,25,23.90
2014,08,10,15,26,24.00
2014,08,10,15,27,24.10
2014,08,10,15,28,24.10
2014,08,10,15,29,24.10
2014,08,10,15,30,24.10
2014,08,10,15,31,24.20
2014,08,10,15,32,24.30
2014,08,10,15,33,24.30
2014,08,10,15,34,24.30
2014,08,10,15,35,24.40
2014,08,10,15,36,24.30
2014,08,10,15,37,24.30
2014,08,10,15,38,24.40
2014,08,10,15,39,24.40
2014,08,10,15,40,24.50
2014,08,10,15,41,24.60
2014,08,10,15,42,24.60
2014,08,10,15,43,24.70
2014,08,10,15,44,24.80
2014,08,10,15,45,24.90
2014,08,10,15,46,24.90
2014,08,10,15,47,25.00
2014,08,10,15,48,25.00
2014,08,10,15,49,25.00
2014,08,10,15,50,25.20
2014,08,10,15,51,25.30
2014,08,10,15,52,25.40
2014,08,10,15,53,25.40
2014,08,10,15,54,25.30
2014,08,10,15,55,25.20
2014,08,10,15,56,25.20
2014,08,10,15,57,25.20
2014,08,10,15,58,25.20
2014,08,10,15,59,25.20
2014,08,10,16,00,25.20
2014,08,10,16,01,25.20
2014,08,10,16,02,25.20
2014,08,10,16,03,25.20
2014,08,10,16,04,25.20
2014,08,10,16,05,25.20
2014,08,10,17,46,23.90
2014,08,10,17,47,23.90
2014,08,10,17,48,23.90
2014,08,10,17,49,23.90
2014,08,10,17,50,24.10
2014,08,10,17,51,24.10
2014,08,10,17,52,24.10
2014,08,10,17,53,24.20
2014,08,10,17,54,24.30
2014,08,10,17,55,24.30
2014,08,10,17,56,24.40
2014,08,10,17,57,24.50
2014,08,10,17,58,24.50
2014,08,10,17,59,24.60
2014,08,10,18,00,24.70
2014,08,10,18,01,24.80
2014,08,10,18,02,24.80
2014,08,10,18,03,24.90
2014,08,10,18,04,24.90
2014,08,10,18,05,24.90
2014,08,10,18,06,24.80
2014,08,10,18,07,24.80
2014,08,10,18,08,24.70
2014,08,10,18,09,24.70
2014,08,10,18,10,24.60
2014,08,10,18,11,24.60
2014,08,10,18,12,24.60
2014,08,10,18,13,24.50
2014,08,10,18,14,24.50
2014,08,10,18,15,24.40
2014,08,10,18,16,24.40
2014,08,10,18,17,24.40
2014,08,10,18,18,24.40
2014,08,10,18,19,24.40
2014,08,10,18,20,24.40
2014,08,10,18,21,24.30
2014,08,10,18,22,24.30
2014,08,10,18,23,24.30
2014,08,10,18,24,24.30
2014,08,10,18,25,24.20
2014,08,10,18,26,24.20
2014,08,10,18,27,24.30
2014,08,10,18,28,24.30
2014,08,10,18,29,24.30
2014,08,10,18,30,24.30
2014,08,10,18,31,24.40
2014,08,10,18,32,24.50
2014,08,10,18,33,24.50
2014,08,10,18,34,24.50
2014,08,10,18,35,24.50
2014,08,10,18,36,24.50
2014,08,10,18,37,24.50
2014,08,10,18,38,24.40
2014,08,10,18,39,24.30
2014,08,10,18,40,24.30
2014,08,10,18,41,24.30
2014,08,10,18,42,24.30
2014,08,10,18,43,24.30
2014,08,10,18,44,24.30
2014,08,10,18,45,24.40
2014,08,10,18,46,24.40
2014,08,10,18,47,24.50
2014,08,10,18,48,24.50
2014,08,10,18,49,24.50
2014,08,10,18,50,24.50
2014,08,10,18,51,24.50
2014,08,10,18,52,24.50
2014,08,10,18,53,24.40
2014,08,10,18,54,24.30
2014,08,10,18,55,24.30
2014,08,10,18,56,24.30
2014,08,10,18,57,24.30
2014,08,10,18,58,24.30
2014,08,10,18,59,24.40